CST,Max TemperatureF,Mean TemperatureF,Min TemperatureF,Max Dew PointF,MeanDew PointF,Min DewpointF,Max Humidity, Mean Humidity, Min Humidity, Max Sea Level PressureIn, Mean Sea Level PressureIn, Min Sea Level PressureIn, Max VisibilityMiles, Mean VisibilityMiles, Min VisibilityMiles, Max Wind SpeedMPH, Mean Wind SpeedMPH, Max Gust SpeedMPH,PrecipitationIn, CloudCover, Events, WindDirDegrees
2013-2-1,26,20,14,16,9,1,74,61,51,30.53,30.42,30.32,10,10,10,18,8,28,0.00,1,,298
2013-2-2,39,32,24,32,24,14,87,68,52,30.32,30.17,30.09,10,10,4,18,7,24,0.00,5,,228
2013-2-3,44,36,28,32,26,19,87,68,46,30.18,30.12,30.01,10,10,10,20,9,26,0.00,3,,303
2013-2-4,50,39,28,41,32,23,87,72,40,30.11,29.97,29.91,10,10,7,15,9,26,0.03,3,,211
2013-2-5,55,44,33,41,38,32,100,80,41,30.10,29.99,29.93,10,8,3,14,6,17,0.00,4,,259
2013-2-6,51,42,32,37,32,28,93,69,41,30.26,30.17,30.09,10,10,5,9,5,,0.00,0,,60
2013-2-7,64,52,39,54,41,30,100,67,51,30.10,29.97,29.88,10,10,1,14,6,22,0.43,4,,188
2013-2-8,50,41,32,48,33,27,100,79,65,30.36,30.20,29.93,10,10,5,18,13,28,0.03,8,,13
2013-2-9,48,40,32,32,28,25,80,65,43,30.38,30.26,30.08,10,10,10,14,9,17,0.00,4,,106
2013-2-10,55,50,46,54,44,32,100,76,51,30.07,29.90,29.74,10,9,2,24,11,37,0.46,7,,179
2013-2-11,55,45,35,54,32,28,94,62,41,30.16,30.09,29.90,10,10,10,18,12,25,0.00,0,,253
2013-2-12,46,37,28,34,30,27,93,68,46,30.16,30.05,29.84,10,10,4,10,5,,0.00,3,,69
2013-2-13,42,38,35,36,34,32,93,85,70,29.98,29.90,29.80,10,9,2,17,9,28,0.07,5,,303
2013-2-14,57,46,35,37,35,32,93,71,44,30.03,29.98,29.95,10,10,9,16,9,23,0.00,0,,237
2013-2-15,46,37,28,36,26,14,81,60,41,30.22,30.15,30.03,10,10,10,20,8,23,0.00,4,,345
2013-2-16,35,30,24,19,13,5,74,53,28,30.22,30.19,30.17,10,10,10,16,5,23,0.00,2,,297
2013-2-17,46,35,24,23,18,10,69,52,34,30.26,30.18,30.08,10,10,10,12,7,17,0.00,3,,188
2013-2-18,59,49,39,46,35,21,93,64,36,30.08,29.94,29.75,10,9,3,23,13,38,0.58,4,,188
2013-2-19,44,36,28,41,22,12,87,58,36,30.28,30.12,29.88,10,10,7,22,15,31,0.00,1,,293
2013-2-20,32,28,23,18,14,10,69,57,44,30.37,30.30,30.26,10,10,10,13,7,16,0.00,1,,24
2013-2-21,37,30,24,37,24,16,100,76,48,30.27,30.05,29.83,10,8,2,24,11,32,0.72,5,,88
2013-2-22,44,38,32,41,35,27,100,85,71,30.07,29.99,29.83,10,9,2,15,9,21,0.00,7,,244
2013-2-23,44,36,28,27,25,23,93,70,46,30.07,30.02,29.96,10,10,10,9,5,,0.00,0,,335
2013-2-24,50,37,24,27,25,23,93,62,37,30.15,30.07,30.00,10,10,10,12,5,,0.00,0,,76
2013-2-25,57,46,35,45,29,25,87,50,31,30.02,29.82,29.46,10,10,4,21,12,29,0.07,3,,87
2013-2-26,48,42,37,48,40,32,100,88,71,29.71,29.49,29.36,10,8,2,26,12,34,0.47,8,,212
2013-2-27,37,35,33,34,31,28,93,81,70,29.91,29.84,29.72,10,10,5,20,15,29,0.00,8,,262
2013-2-28,37,34,32,32,29,25,100,81,70,30.09,30.01,29.90,10,10,7,14,10,18,0.01,8,,301